Tracking 32139 objects as of 15-Nov-2025
HD Live streaming from Space Station
objects crossing your sky now

TJS-20

Track TJS-20 now!


NORAD ID: 66142
Int'l Code: 2025-238A
Perigee: 35,786.0 km
Apogee: 35,799.9 km
Inclination: 5.9 °
Period: 1,436.1 minutes
Semi major axis: 42163 km
RCS: Unknown
Launch date: October 23, 2025
Source: People's Republic of China (PRC)
Launch site: Wenchang Satellite Launch Center (WSC)
Your satellite tracking list
Your tracking list is empty




NASA's NSSDC Master Catalog

Two Line Element Set (TLE):
1 66142U 25238A   25319.46448860  .00000020  00000-0  00000+0 0  9990
2 66142   5.9487 300.4429 0001645 114.1971 229.8802  1.00274655   186
Source of the keplerian elements: AFSPC